Theta_e
310 310 309 308 307 305 304 303 303 302 302 302 303 303 304 305 306 306 303 305 298 293 296 298 300 297 297 295 290 296 295 297 296 290 295 300 299 303 301 302 301 299 298 299 299 296 292 308 308 302 310 314 314 315
309 309 308 307 306 304 303 302 302 302 302 302 302 302 303 304 305 307 300 304 302 294 295 303 303 304 303 300 295 296 296 296 298 293 294 296 298 302 302 297 306 300 304 301 302 301 308 310 311 313 314 314 314 313
309 309 309 307 305 304 303 302 302 302 301 302 302 302 303 304 305 306 304 305 301 294 296 302 303 309 308 305 304 294 301 302 300 302 297 295 293 300 299 300 303 305 306 305 303 303 305 306 311 312 312 311 311 311
308 309 308 307 305 303 303 302 302 301 301 301 302 302 303 304 305 306 303 305 301 296 291 299 308 304 308 310 303 302 303 305 304 302 297 295 293 300 299 303 303 305 305 303 298 301 303 305 308 309 308 308 306 306
307 308 308 307 305 303 302 302 301 301 301 301 302 302 303 304 305 306 307 306 304 297 292 296 303 308 310 310 309 305 304 303 300 297 296 294 299 297 300 301 300 306 304 301 302 304 307 303 306 307 305 304 304 303
306 307 307 306 304 303 302 301 300 300 301 301 302 302 303 304 304 302 299 304 306 301 295 290 303 304 307 309 308 306 305 303 301 298 298 299 301 297 295 296 300 305 306 309 304 306 304 305 305 305 303 303 303 302
306 307 306 305 303 302 301 300 300 300 301 301 301 302 302 303 304 298 299 302 306 305 294 291 293 306 307 307 308 302 303 303 302 300 297 297 298 299 295 293 299 301 305 305 305 303 299 301 298 301 301 301 300 299
306 306 305 303 302 301 300 300 300 300 300 300 301 302 303 304 304 300 307 306 305 299 298 290 292 300 307 303 302 302 299 301 301 301 299 296 298 297 290 293 297 300 301 302 304 305 301 301 299 299 299 298 296 295
306 305 304 302 301 300 300 299 299 300 300 300 301 303 304 302 299 303 306 306 306 301 293 292 290 291 307 305 305 301 299 295 302 297 299 301 297 292 294 294 295 298 298 298 298 298 298 297 296 297 297 296 295 294
305 304 302 302 300 299 299 299 299 300 300 301 302 300 296 301 303 304 302 297 296 297 297 293 297 294 302 304 301 299 298 296 292 298 299 296 292 299 299 300 299 298 298 299 296 296 296 295 296 296 296 296 295 294
304 303 302 301 299 299 298 298 299 299 301 302 298 297 303 303 303 300 294 292 292 290 295 296 297 297 308 298 298 302 296 296 291 298 298 293 292 298 301 300 300 300 301 302 301 301 300 299 297 296 295 295 295 294
303 302 301 299 299 299 298 298 298 300 298 297 296 299 300 298 296 291 291 294 292 290 298 297 298 302 304 307 300 301 295 294 289 300 295 291 296 300 300 300 301 303 302 300 300 299 298 299 298 297 296 295 295 295
302 300 299 299 299 298 298 298 299 299 300 300 296 292 292 294 286 286 285 289 290 295 298 300 297 302 303 303 300 298 292 292 298 294 292 296 302 301 299 300 302 304 303 302 301 301 300 299 299 297 295 295 295 294
300 300 299 298 298 298 298 298 298 299 298 292 289 284 288 288 289 291 292 294 298 300 300 301 300 299 303 298 301 292 297 297 290 287 290 298 302 301 301 301 300 300 300 300 299 299 298 297 296 296 295 294 293 292
299 298 297 297 298 298 298 298 298 300 294 290 291 285 288 292 294 296 298 299 301 303 302 299 300 300 298 295 298 296 290 288 292 292 298 303 302 301 301 302 301 300 301 300 300 298 297 297 296 295 296 296 294 293
297 296 297 297 297 299 299 299 300 298 295 292 291 289 293 291 292 295 296 295 299 302 302 300 297 294 293 296 292 290 290 288 294 300 301 304 303 302 302 301 301 302 301 301 300 299 298 297 296 295 295 294 293 293
296 296 297 297 297 298 299 297 297 292 292 290 290 295 294 294 293 294 299 296 302 298 294 297 291 290 298 293 291 298 295 298 301 302 304 303 302 301 302 302 301 302 302 301 300 299 299 298 297 296 294 295 295 295
295 298 296 296 297 296 297 296 293 290 287 291 290 293 295 295 294 295 297 300 298 298 297 294 299 293 291 289 293 301 304 306 306 304 303 304 304 302 302 302 302 302 301 301 301 300 299 298 296 296 297 296 295 295
296 297 295 296 297 295 292 292 294 287 291 293 294 296 295 295 297 298 298 300 302 303 300 299 293 293 294 302 301 304 306 308 304 303 301 304 305 303 302 302 302 302 302 301 300 299 299 298 298 298 297 297 296 295
296 296 296 296 296 292 288 289 293 291 289 293 294 293 294 294 297 298 299 299 299 299 295 293 295 300 301 305 306 307 308 309 305 301 301 301 299 301 302 301 301 302 301 301 300 296 298 298 299 299 299 298 297 296
294 297 296 296 294 292 290 289 291 293 294 292 296 296 293 297 296 295 296 298 294 294 294 298 300 305 305 307 309 309 308 307 305 304 302 302 303 303 303 303 303 302 301 300 298 298 297 298 299 300 299 299 300 299
297 296 296 296 291 290 288 293 292 294 294 295 295 296 294 292 291 292 296 292 292 296 299 299 301 303 303 304 307 308 307 308 306 302 298 298 301 302 301 302 301 301 301 301 300 299 300 300 301 301 300 300 298 300
295 294 292 292 288 288 288 295 290 293 289 291 295 291 292 294 296 298 291 294 297 302 304 304 301 300 304 306 306 307 307 305 304 304 303 304 304 304 304 304 303 302 301 302 303 301 301 296 297 300 301 300 300 300
294 290 288 286 287 286 291 289 293 292 292 291 290 288 292 293 294 290 290 295 298 300 298 299 300 304 303 305 304 305 305 305 306 305 306 304 303 303 305 304 304 304 304 303 303 302 303 302 298 301 301 300 300 299
286 285 287 284 290 287 286 287 288 289 287 290 288 290 292 292 288 287 289 294 295 298 299 299 303 304 303 304 304 303 306 306 304 303 305 306 304 304 303 303 304 304 305 303 302 302 302 303 302 301 301 300 299 298
281 287 284 285 288 286 288 285 287 288 289 288 291 295 294 291 288 288 290 292 295 297 299 302 302 304 304 305 300 301 302 308 307 304 304 305 304 302 301 301 301 302 306 305 304 302 302 301 301 301 301 298 291 299
281 284 289 293 291 291 289 292 293 291 288 287 292 292 292 285 287 290 294 293 294 295 296 299 304 305 304 303 301 301 302 306 307 305 307 306 306 306 304 302 301 304 306 306 305 305 303 303 302 301 300 300 300 300
286 287 284 289 289 291 287 287 287 287 291 296 294 288 287 287 288 293 293 295 295 296 297 301 304 306 305 305 306 305 303 305 305 306 306 306 307 308 308 308 308 290 306 307 307 306 305 304 303 301 300 300 301 301
286 289 289 287 288 289 289 289 290 294 297 296 293 292 290 294 296 296 296 297 297 297 296 296 301 303 303 304 306 307 306 305 303 301 300 300 301 302 306 306 304 306 306 305 285 295 304 304 303 302 302 301 301 300
288 292 288 287 287 287 291 293 292 295 298 298 298 296 294 294 296 299 297 299 299 297 298 300 302 303 303 303 303 304 307 306 305 305 303 302 303 304 304 304 304 304 304 303 301 298 287 298 294 299 297 297 297 296
293 292 288 288 286 287 289 291 293 294 296 297 299 295 292 294 297 301 301 301 300 300 300 301 301 302 302 301 302 301 302 306 304 302 305 306 304 304 304 303 303 303 302 302 301 300 299 299 298 297 296 294 293 293
291 289 289 286 289 295 296 295 294 294 294 295 294 296 295 294 291 298 301 301 298 298 293 298 300 301 304 305 306 306 291 306 306 304 301 303 303 303 302 301 300 300 299 299 298 298 298 297 296 294 293 292 292 292
291 292 291 292 292 291 294 294 292 291 293 293 293 293 293 292 288 294 301 301 299 298 298 302 301 301 300 301 302 303 295 306 297 286 286 288 290 294 301 302 301 299 298 298 297 297 296 294 293 292 292 292 291 291
Wind_Speed
16 15 15 15 14 12 11 10 10 9 12 12 12 13 13 16 16 6 6 6 3 4 13 14 7 11 9 3 3 5 5 1 3 4 4 2 3 3 3 8 14 12 9 8 9 10 9 7 8 8 7 10 13 15
15 15 13 14 14 12 11 10 11 11 12 12 13 13 12 15 16 12 6 4 4 4 9 18 21 22 22 16 4 4 3 4 1 2 2 3 4 3 6 6 3 9 4 7 5 3 5 3 6 6 6 13 14 16
15 14 12 13 14 12 12 11 11 12 12 13 13 14 14 14 16 10 7 4 3 4 9 10 5 8 6 10 10 4 2 1 1 1 2 2 5 4 5 8 7 4 4 4 9 5 8 6 7 10 12 15 15 17
14 14 12 13 13 13 12 12 12 11 12 13 14 14 14 14 14 11 6 4 2 4 5 4 3 10 6 7 15 16 7 3 3 2 3 3 4 2 3 5 8 2 8 8 6 7 11 8 11 15 18 19 20 18
14 13 12 13 14 13 12 11 11 12 13 15 15 15 15 13 14 10 8 7 7 4 5 10 19 5 3 10 14 15 12 6 3 2 3 3 2 2 3 3 8 5 5 6 4 16 2 15 15 18 20 21 21 22
14 12 11 13 13 13 11 11 12 12 14 15 16 16 14 14 12 4 3 2 5 4 4 5 8 6 5 9 12 12 5 5 2 2 3 2 2 2 3 5 1 6 6 7 8 13 17 21 18 19 20 20 20 19
14 12 13 14 13 11 10 11 13 13 14 15 16 16 16 14 7 4 5 3 8 3 3 6 5 4 4 6 2 2 2 3 3 4 2 2 1 3 1 2 3 2 5 13 19 26 23 20 20 17 18 20 19 18
13 11 13 12 11 9 10 10 11 13 15 16 17 17 18 17 11 6 8 13 6 3 4 4 6 7 3 3 3 2 2 2 4 2 2 3 3 3 3 0 2 10 16 21 20 13 24 24 22 20 17 17 18 16
12 12 13 12 11 10 9 9 11 13 15 16 19 22 6 4 3 2 6 8 7 5 3 3 4 4 2 3 1 5 2 2 2 3 1 4 2 1 4 6 8 10 6 17 22 22 21 22 20 18 16 15 17 15
11 13 12 12 10 8 9 8 11 14 15 17 9 4 4 2 6 2 4 4 4 4 4 5 3 6 5 2 2 3 3 2 3 1 2 2 2 3 8 13 10 12 14 17 22 20 20 19 17 17 15 13 14 13
14 12 12 11 10 9 5 8 10 12 12 2 2 3 5 1 5 4 4 4 5 5 6 5 7 8 2 4 3 1 2 2 3 2 2 2 1 5 8 9 13 13 13 7 15 17 16 18 17 16 15 14 14 13
14 14 13 11 9 6 7 9 7 5 3 5 6 5 4 4 5 5 5 5 6 5 7 7 6 5 2 2 4 3 2 3 3 3 2 4 3 10 8 15 15 14 15 18 17 19 17 17 15 15 15 14 13 13
14 13 11 9 8 8 9 8 7 8 10 3 4 4 3 4 5 7 7 5 4 4 4 5 5 3 4 4 4 3 4 0 2 3 2 3 11 12 11 11 12 14 17 18 19 17 17 17 15 15 15 13 13 12
13 11 10 9 9 8 9 8 7 7 4 3 3 5 7 6 6 4 4 4 3 3 2 3 3 3 1 4 2 4 1 3 3 4 2 6 10 13 14 13 14 16 17 18 18 18 17 16 15 14 13 13 12 12
10 8 6 7 10 11 11 10 7 3 2 4 4 6 7 4 3 4 3 4 2 2 2 4 3 3 3 4 2 2 2 3 2 2 3 8 11 12 15 13 15 15 16 17 16 16 16 16 14 14 13 12 12 11
9 4 6 7 7 6 7 8 5 2 3 5 6 6 4 4 6 5 3 3 2 3 3 4 3 4 4 2 4 4 2 3 2 3 4 9 13 13 14 14 14 15 15 15 14 15 15 15 15 14 13 12 12 11
10 4 5 4 3 2 5 2 4 5 5 5 6 7 7 5 4 3 1 3 2 4 5 3 5 3 2 3 4 2 1 4 3 4 5 12 14 14 14 14 15 15 16 15 15 14 14 15 15 14 14 13 12 11
4 6 3 4 4 3 2 5 3 4 6 7 6 5 5 5 6 5 5 5 4 3 3 3 4 4 3 3 3 2 1 3 4 4 6 12 15 13 10 16 16 16 16 15 15 14 14 15 14 11 14 13 12 12
2 3 5 2 2 3 2 3 5 5 7 5 7 5 6 5 6 7 6 5 4 3 4 3 6 3 4 1 2 2 1 1 5 7 9 12 14 16 15 15 15 16 15 14 14 10 10 12 10 11 10 10 9 9
5 5 4 2 3 2 4 3 3 5 4 2 4 6 5 6 6 6 7 6 5 3 6 5 4 1 2 3 4 3 2 2 6 10 11 11 8 10 14 14 12 14 13 13 11 10 10 9 9 9 9 8 8 8
5 3 8 8 5 4 3 4 4 4 4 4 3 3 4 4 4 4 4 3 5 4 5 6 5 1 4 5 3 3 2 5 7 9 13 13 11 10 11 11 13 11 10 10 10 9 8 9 9 8 9 8 7 8
2 0 2 7 4 5 5 5 5 3 4 4 4 4 4 3 3 3 4 4 3 6 6 7 6 4 6 6 3 1 7 8 7 10 10 13 14 11 11 11 11 10 9 10 10 10 9 9 9 9 9 8 6 7
1 3 3 5 5 6 4 2 5 4 5 2 3 4 3 3 1 5 4 5 6 6 4 3 3 5 5 1 2 6 8 8 9 10 12 10 11 10 10 11 10 9 9 9 9 10 9 8 8 8 8 8 8 8
5 2 3 4 6 3 3 5 4 4 4 5 3 4 3 2 2 1 4 3 4 2 0 2 3 6 3 4 6 7 8 7 9 11 10 10 9 10 9 9 9 8 8 8 7 8 9 9 10 8 8 9 9 9
3 4 4 4 4 5 5 4 5 5 5 5 4 3 3 2 2 2 1 3 2 3 4 2 6 7 8 7 6 5 5 8 8 8 6 9 10 9 9 9 8 7 6 9 9 9 9 8 9 9 9 9 10 9
5 5 5 4 4 6 4 4 5 6 4 4 4 3 3 3 2 3 2 2 1 2 1 3 4 6 6 7 6 5 5 2 9 9 6 7 10 10 10 10 10 8 7 8 10 10 10 7 8 12 11 11 9 9
4 5 5 4 4 2 4 4 5 4 4 3 1 4 3 1 2 3 2 3 2 2 2 4 5 6 7 8 5 4 2 2 3 6 7 6 6 7 9 9 10 10 10 9 8 9 11 10 9 10 10 11 10 9
4 4 6 1 6 5 4 2 3 4 3 1 2 2 2 2 3 2 2 1 2 1 1 1 4 4 6 5 5 5 5 4 5 5 6 5 4 3 3 4 6 5 6 7 8 8 8 8 9 11 12 11 8 7
5 4 4 7 8 5 5 4 3 2 2 3 1 3 3 3 1 2 3 4 2 2 1 3 4 4 3 3 3 3 3 4 8 11 13 10 9 6 5 5 7 7 7 8 8 4 7 8 10 10 7 7 6 7
5 4 4 4 4 5 1 2 0 2 2 3 2 4 3 2 2 2 4 3 3 3 2 3 3 1 2 2 3 4 3 3 2 3 6 8 8 7 7 8 8 8 8 9 10 10 9 11 11 10 10 9 8 9
0 4 4 2 2 2 2 3 1 0 1 2 2 4 3 3 2 1 0 1 1 3 3 3 4 3 2 3 3 5 6 5 5 3 2 3 7 8 8 9 8 8 8 10 9 9 10 9 9 11 12 12 12 10
4 5 2 2 1 4 5 4 3 3 3 2 3 3 3 2 2 3 1 1 1 2 3 1 1 2 2 1 1 1 3 2 5 4 6 7 9 10 11 10 9 9 10 11 11 9 10 11 11 11 12 13 12 11
3 2 2 2 3 4 2 2 2 3 2 2 3 2 1 1 2 2 2 2 2 1 1 1 2 2 3 3 2 1 3 1 8 7 6 8 7 8 11 10 9 10 10 9 10 11 12 14 12 12 12 12 12 12
Wind_Direction
282 277 262 240 238 236 248 266 276 290 297 304 307 314 319 320 322 325 288 169 213 268 288 275 276 272 274 280 268 333 301 157 322 7 309 248 263 179 240 199 185 189 176 206 222 211 221 157 156 218 69 123 146 146
286 284 259 234 230 233 239 250 270 281 289 296 303 306 308 309 313 324 282 159 199 231 272 304 282 270 264 256 281 275 283 269 356 315 301 308 273 256 214 193 210 212 225 189 243 184 102 54 27 108 115 132 144 123
290 286 262 228 225 231 235 249 262 278 289 295 302 304 305 306 306 310 287 273 217 266 272 241 224 207 207 224 199 240 220 47 249 127 300 298 273 306 225 220 212 181 189 196 183 97 113 103 106 113 116 124 127 131
290 283 263 225 219 227 232 250 263 272 287 292 300 299 302 301 307 316 281 264 279 289 285 279 239 269 277 194 196 207 272 255 239 215 235 234 262 333 296 322 248 17 168 146 90 129 116 105 115 119 116 116 118 120
283 280 255 222 213 225 234 249 263 279 287 292 296 296 298 304 308 299 269 246 219 271 304 302 298 263 207 205 206 215 234 262 242 238 220 225 233 238 222 324 272 188 173 211 181 158 166 128 125 126 124 123 122 122
282 277 238 214 218 227 235 248 262 274 286 294 296 297 303 305 309 294 246 202 202 175 278 294 335 282 208 224 230 239 240 264 232 237 223 249 195 218 254 210 280 242 240 230 139 126 122 123 119 119 120 120 118 116
279 265 220 211 221 229 233 257 273 286 291 293 297 298 300 299 287 236 354 20 162 167 258 279 288 209 249 240 181 150 197 251 244 250 151 262 211 235 250 254 40 172 127 125 127 124 116 123 120 111 108 110 108 107
279 241 207 207 224 218 245 264 284 293 297 299 297 298 298 292 273 247 242 198 165 249 243 271 268 261 166 257 179 107 235 223 252 310 168 219 178 217 227 111 153 122 124 132 145 114 113 116 116 114 115 120 113 110
263 211 199 210 205 224 244 269 283 292 295 298 301 295 275 210 202 212 36 154 201 260 277 256 287 290 240 267 178 158 201 256 243 260 206 266 35 49 113 144 138 116 115 124 115 114 117 112 115 123 125 122 116 116
219 196 208 199 203 225 253 274 289 296 299 297 277 220 215 106 0 233 171 205 199 203 228 252 263 265 294 299 234 166 251 187 266 240 194 55 357 43 108 122 135 135 132 141 123 121 120 124 127 127 120 119 121 119
192 196 196 199 208 233 241 276 295 316 281 242 281 295 2 116 216 206 219 214 181 218 206 231 228 259 201 287 321 294 217 271 284 131 243 112 134 106 134 121 134 141 153 126 122 127 125 123 125 124 120 120 121 126
191 187 190 206 219 224 252 271 295 291 320 347 297 284 280 243 227 238 209 185 214 242 168 219 198 222 247 232 253 224 273 183 250 319 244 123 166 142 141 131 141 148 131 125 124 118 121 121 124 126 128 129 129 121
184 183 198 204 216 236 253 273 289 300 296 272 210 225 226 195 243 221 199 202 224 186 199 209 197 232 192 232 249 253 243 160 282 267 41 62 139 139 138 129 123 125 125 120 119 118 117 119 124 127 125 121 124 121
185 187 198 214 232 241 257 267 287 289 264 257 221 230 229 197 233 229 254 292 51 249 253 265 248 251 196 233 272 263 83 239 212 183 158 142 159 142 145 138 131 127 125 124 123 123 123 122 119 119 124 131 132 131
180 190 201 234 246 253 252 255 253 248 252 251 244 240 222 260 269 278 285 246 193 299 299 276 237 251 208 260 234 298 227 262 214 144 113 135 152 148 144 137 130 132 133 132 133 131 129 129 130 128 130 130 126 133
157 178 233 248 241 276 215 212 211 212 253 234 232 258 236 264 260 234 224 257 288 284 274 248 255 220 204 236 222 233 227 169 117 90 100 143 152 150 149 142 139 136 137 136 133 132 133 134 134 130 130 130 130 130
176 211 117 80 39 244 196 211 197 221 238 238 229 231 253 278 285 297 228 228 228 263 261 263 239 168 152 224 224 210 325 67 61 87 124 149 150 149 146 138 140 141 138 136 135 138 136 133 136 140 138 137 132 129
229 135 157 37 341 122 200 212 238 250 236 247 250 235 213 250 265 247 232 206 224 240 264 262 305 232 224 243 173 146 146 91 76 98 130 140 148 142 148 144 145 140 138 141 139 134 135 143 147 142 139 139 137 137
135 131 134 121 72 327 264 232 226 263 237 253 240 242 228 248 238 251 240 212 228 287 286 245 248 242 242 301 316 53 351 61 114 129 127 135 145 140 143 134 136 135 135 135 139 145 146 155 141 145 147 159 150 152
206 233 234 212 168 244 249 235 240 254 261 258 234 247 228 243 230 229 228 213 208 203 216 232 248 237 306 340 332 351 19 150 146 136 133 136 121 133 133 144 139 135 137 141 140 144 145 148 153 157 158 164 152 152
193 177 186 196 188 226 280 278 228 238 272 252 242 242 242 205 218 241 221 187 210 217 224 224 260 229 312 318 340 307 158 161 162 154 144 135 133 136 170 140 148 144 146 145 149 138 165 153 153 156 155 173 168 155
135 247 179 196 221 205 253 244 264 274 251 272 257 232 228 183 183 219 139 184 221 232 227 236 237 289 292 302 354 238 130 136 129 121 121 142 147 167 157 159 161 158 161 155 159 160 169 153 160 164 169 164 182 165
152 187 199 211 211 214 244 281 248 222 247 240 229 229 217 194 172 138 198 211 213 213 229 241 255 283 263 240 180 148 143 150 156 145 155 156 160 155 160 167 168 167 162 159 161 165 165 142 161 177 166 165 179 158
127 239 231 207 213 249 233 223 222 238 242 238 205 240 186 147 124 205 246 180 94 123 249 227 220 195 183 183 166 147 144 187 143 146 140 144 148 155 160 165 164 171 160 155 167 159 148 177 156 190 175 188 185 175
210 218 233 236 205 241 232 223 213 218 249 236 240 211 125 155 223 249 314 91 124 151 164 164 221 174 178 153 111 98 176 159 145 134 154 155 138 143 151 155 160 157 155 157 168 169 172 172 183 185 186 178 163 193
235 190 203 219 215 223 228 255 217 223 243 252 225 125 167 173 247 43 44 28 62 95 89 174 238 136 130 124 121 127 121 251 146 157 156 153 161 161 160 164 166 160 185 182 175 181 161 155 197 184 195 166 167 183
245 227 207 228 261 291 301 282 265 261 248 233 222 192 166 70 32 73 84 7 53 64 317 300 259 138 123 114 111 94 96 201 86 144 156 176 172 170 169 173 179 173 174 192 186 183 195 182 186 185 180 183 187 207
261 267 233 212 239 221 247 265 266 261 278 310 255 182 78 53 76 57 67 75 84 17 225 57 70 76 92 97 102 127 125 126 126 131 120 119 124 133 109 99 76 62 159 179 189 192 174 166 167 173 179 188 172 185
238 229 248 246 231 229 226 232 231 226 294 283 315 80 86 65 56 134 126 123 146 252 154 108 97 101 120 128 116 127 134 181 174 172 181 175 167 160 164 141 151 149 136 119 47 61 155 159 163 170 154 139 139 143
238 195 226 229 237 229 224 325 24 290 305 8 92 127 97 96 94 121 134 170 154 148 127 115 124 121 128 187 170 172 178 167 198 240 211 191 181 137 156 152 145 140 136 129 120 107 100 111 105 120 132 133 133 133
228 213 244 220 267 252 197 174 177 72 135 94 32 64 120 128 141 348 313 73 131 175 183 166 159 158 154 179 199 197 184 179 157 186 245 154 147 153 144 136 133 133 132 127 130 131 138 139 137 138 138 134 137 143
209 221 274 267 227 155 178 183 150 133 133 133 102 119 136 181 143 125 71 249 210 207 65 332 198 140 76 317 176 339 326 341 149 165 181 163 142 140 137 127 123 123 128 128 123 134 144 137 133 134 134 137 139 133
230 173 220 229 166 159 132 160 114 127 147 128 96 66 37 28 97 95 95 40 18 44 179 48 351 335 319 285 255 183 269 309 61 76 68 75 111 132 135 131 129 120 117 128 133 136 138 134 132 137 137 137 135 136